[[[{"header":{"parameterUnit":"kt","parameterCategory":2,"dx":1,"dy":1,"la1":30.253999710083008,"la2":30.299108505249023,"lo1":-89.0895004272461,"lo2":-89.04439544677734,"nx":28,"ny":28,"refTime":"2022-09-18T21:00:00:Z","depth":0,"parameterNumber":1,"parameterNumberName":"U-component_of_WINDS"},"data":[-3.6794,-3.6976,-3.6986,-3.7199,-3.7243,-3.7391,-3.7448,-3.7522,-3.7583,-3.7761,-3.7866,-3.7896,-3.7963,-3.8092,-3.8207,-3.8218,-3.8268,-3.8323,-3.8328,-3.8064,-3.8028,-3.7994,-3.7952,-3.8333,-3.8334,-3.8602,-3.8604,-3.8606,-3.6599,-3.6645,-3.6759,-3.6878,-3.6977,-3.6928,-3.7019,-3.7106,-3.724,-3.7317,-3.7421,-3.7579,-3.7706,-3.7755,-3.788,-3.7967,-3.7953,-3.8,-3.7997,-3.8009,-3.7725,-3.7681,-3.801,-3.801,-3.8009,-3.8009,-3.8009,-3.8009,-3.6246,-3.6354,-3.6432,-3.6557,-3.6619,-3.6699,-3.6805,-3.6838,-3.6952,-3.7082,-3.7072,-3.7225,-3.7305,-3.7461,-3.7517,-3.7637,-3.7587,-3.7644,-3.7659,-3.7674,-3.769,-3.7306,-3.7658,-3.7657,-3.7656,-3.7656,-3.7655,0,-3.5992,-3.5993,-3.6104,-3.6218,-3.631,-3.64,-3.6485,-3.655,-3.6557,-3.6651,-3.6789,-3.687,-3.7031,-3.7163,-3.7282,-3.7329,-3.7292,-3.7288,-3.7328,-3.7338,-3.733,-3.734,-3.6881,-3.728,-3.7276,-3.7274,-3.7272,-3.7271,-3.564,-3.5765,-3.585,-3.5927,-3.5976,-3.61,-3.6176,-3.6173,-3.6254,-3.6359,-3.6456,-3.6586,-3.6692,-3.6911,-3.6952,-3.7074,-3.7058,-3.7209,-3.7077,-3.7079,-3.7065,-3.706,-3.7074,-3.7237,-3.7242,-3.7245,-3.7248,0,-3.5442,-3.5457,-3.5654,-3.5727,-3.5749,-3.5881,-3.5944,-3.6053,-3.6073,-3.6227,-3.6262,-3.6297,-3.6433,-3.6449,-3.6608,-3.6613,-3.6834,-3.6813,-3.6806,-3.6804,-3.6944,-3.6932,-3.7389,-3.745,-3.7051,-3.7054,-3.7058,0,-3.515,-3.5314,-3.5328,-3.5442,-3.5624,-3.5616,-3.5797,-3.5833,-3.5901,-3.6022,-3.598,-3.6095,-3.6097,-3.6214,-3.6222,-3.6404,-3.6433,-3.6449,-3.645,-3.6456,-3.6455,-3.6504,-3.6488,-3.6442,-3.644,-3.6438,-3.6436,0,-3.4841,-3.504,-3.5223,-3.5271,-3.5367,-3.5454,-3.5498,-3.5574,-3.565,-3.575,-3.58,-3.5917,-3.5983,-3.6076,-3.6085,-3.5994,-3.6307,-3.6185,-3.6324,-3.6325,-3.6397,-3.6393,-3.6789,-3.6433,-3.6433,-3.6432,-3.6431,0,-3.461,-3.4709,-3.4971,-3.505,-3.5103,-3.5224,-3.5339,-3.5445,-3.553,-3.5542,-3.5621,-3.5597,-3.5755,-3.5633,-3.5852,-3.5732,-3.58,-3.5828,-3.5839,-3.5858,-3.5722,-3.5949,-3.632,-3.6362,-3.587,-3.5866,-3.5861,0,-3.4254,-3.4522,-3.4517,-3.4767,-3.4894,-3.4839,-3.4973,-3.5048,-3.5075,-3.5188,-3.5217,-3.5347,-3.5258,-3.5302,-3.5407,-3.5445,-3.5601,-3.5424,-3.5592,-3.5599,-3.5575,-3.5916,-3.5969,-3.6235,-3.5802,-3.5808,-3.5812,0,-3.398,-3.4093,-3.4138,-3.4194,-3.4291,-3.4397,-3.4551,-3.4676,-3.4751,-3.484,-3.4971,-3.5151,-3.5093,-3.5165,-3.5158,-3.5268,-3.5495,-3.5192,-3.5194,-3.5249,-3.5772,-3.5822,-3.5867,-3.5467,-3.5474,-3.548,-3.5765,0,-3.3633,-3.3769,-3.3889,-3.4012,-3.4096,-3.4252,-3.4268,-3.4354,-3.4338,-3.4363,-3.4555,-3.4623,-3.4753,-3.4807,-3.4793,-3.5038,-3.5001,-3.4938,-3.4824,-3.5045,-3.5141,-3.5179,-3.4681,-3.4678,-3.4675,-3.4673,0,0,-3.3291,-3.3485,-3.3476,-3.3624,-3.3695,-3.3636,-3.3802,-3.3864,-3.3992,-3.4043,-3.3978,-3.4244,-3.4303,-3.4535,-3.4605,-3.4657,-3.4704,-3.4626,-3.4939,-3.4969,-3.4996,-3.5097,-3.5137,-3.4668,-3.4667,-3.4666,-3.4665,0,-3.3168,-3.3224,-3.3387,-3.345,-3.3543,-3.3561,-3.36,-3.3683,-3.3707,-3.3894,-3.3846,-3.3963,-3.4176,-3.4246,-3.4309,-3.4597,-3.4557,-3.4634,-3.4785,-3.491,-3.4944,-3.4973,-3.5079,-3.5117,-3.4658,-3.4659,-3.4659,0,-3.2904,-3.2963,-3.3043,-3.3198,-3.3259,-3.3391,-3.3274,-3.3418,-3.3516,-3.3448,-3.3635,-3.3676,-3.377,-3.3986,-3.4083,-3.4028,-3.4422,-3.43,-3.4318,-3.4331,-3.4454,-3.4493,-3.4529,-3.4062,-3.4059,-3.4058,0,0,-3.2796,-3.2921,-3.2986,-3.3173,-3.3215,-3.3244,-3.3316,-3.3308,-3.3392,-3.3426,-3.3478,-3.3563,-3.3686,-3.3769,-3.3886,-3.4119,-3.4141,-3.4226,-3.4254,-3.4277,-3.4302,-3.4431,-3.447,-3.4049,-3.4049,-3.4049,0,0,-3.2746,-3.2826,-3.2795,-3.3014,-3.3094,-3.3172,-3.3287,-3.3252,-3.3358,-3.3343,-3.3338,-3.3361,-3.3563,-3.3606,-3.3494,-3.3846,-3.3732,-3.376,-3.3812,-3.3848,-3.3875,-3.3863,-3.3387,0,0,0,0,0,-3.2629,-3.2815,-3.2786,-3.2825,-3.3023,-3.3187,-3.3213,-3.3212,-3.3131,-3.3223,-3.326,-3.3211,-3.3545,-3.3446,-3.3486,-3.3612,-3.3944,-3.3963,-3.3981,-3.4103,-3.414,-3.4171,0,0,0,0,0,0,-3.2644,-3.2692,-3.2781,-3.2866,-3.2911,-3.3181,-3.3044,-3.3049,-3.3122,-3.3109,-3.3205,-3.3214,-3.3219,-3.3425,-3.3462,-3.3581,-3.3375,-3.3952,-3.3968,-3.3982,-3.4116,-3.4146,-3.4172,0,0,0,0,0,-3.2656,-3.2695,-3.3011,-3.2864,-3.2902,-3.2946,-3.3037,-3.304,-3.3097,-3.3156,-3.3163,-3.3089,-3.3222,-3.3253,-3.3447,-3.3565,-3.335,-3.3363,-3.3962,-3.3974,-3.3986,-3.4131,0,0,0,0,0,0,-3.2665,-3.27,-3.3019,-3.3031,-3.2793,-3.2931,-3.2952,-3.3032,-3.3138,-3.3147,-3.3039,-3.3028,-3.3227,-3.325,-3.3274,-3.3559,-3.3329,-3.3343,-3.3352,-3.3971,-3.3981,-3.399,0,0,0,0,0,0,-3.2679,-3.271,-3.3025,-3.2936,-3.2937,-3.2917,-3.2936,-3.3101,-3.314,-3.3015,-3.3009,-3.3033,-3.3192,-3.3249,-3.3267,-3.3525,-3.3314,-3.3327,-3.3336,-3.3342,-3.3979,-3.3987,0,0,0,0,0,0,-3.2692,-3.2719,-3.2932,-3.2934,-3.2935,-3.3067,-3.3063,-3.3266,-3.3061,-3.3012,-3.3043,-3.3034,-3.3193,-3.3211,-3.3263,-3.3513,-3.3522,-3.3314,-3.3323,-3.3329,-3.3333,0,0,0,0,0,0,0,-3.2703,-3.2523,-3.2949,-3.2932,-3.2933,-3.314,-3.3143,-3.3146,-3.3059,-3.3052,-3.3045,-3.3038,-3.3238,-3.3253,-3.3267,-3.3503,0,0,-3.3313,-3.3319,0,0,0,0,0,0,0,0,-3.2512,-3.252,-3.2949,-3.2951,-3.2954,-3.314,-3.3143,-3.3146,-3.3058,-3.3052,-3.3046,-3.3041,-3.3242,-3.3254,-3.3266,0,0,0,0,0,0,0,0,0,0,0,0,0,0,0,-3.2949,-3.2951,0,-3.3141,-3.3143,-3.3145,-3.3057,-3.3052,-3.3047,-3.3043,-3.3245,-3.3255,-3.3265,0,0,0,0,0,0,0,0,0,0,0,0,0,0,0,0,0,0,0,0,0,0,0,0,0,0,0,0,0,0,0,0,0,0,0,0,0,0,0,0,0,0,0,0,0,0,0,0,0,0,0,0,0,0,0,0,0,0,0,0,0,0,0,0,0,0,0,0,0]}],[{"header":{"parameterUnit":"kt","parameterCategory":2,"dx":1,"dy":1,"la1":30.253999710083008,"la2":30.299108505249023,"lo1":-89.0895004272461,"lo2":-89.04439544677734,"nx":28,"ny":28,"refTime":"2022-09-18T21:00:00:Z","depth":0,"parameterNumber":2,"parameterNumberName":"V-component_of_WINDS"},"data":[-7.726,-7.7392,-7.7386,-7.7532,-7.755,-7.7647,-7.7679,-7.7719,-7.7748,-7.7861,-7.7924,-7.7927,-7.7951,-7.8021,-7.8086,-7.8085,-7.8113,-7.8166,-7.8156,-7.7933,-7.7901,-7.7871,-7.784,-7.8172,-7.8172,-7.8388,-7.839,-7.8391,-7.7096,-7.7116,-7.7192,-7.7261,-7.7324,-7.727,-7.7318,-7.7375,-7.7462,-7.7499,-7.7561,-7.7658,-7.7733,-7.7738,-7.7808,-7.7865,-7.7842,-7.7885,-7.788,-7.7884,-7.7646,-7.7613,-7.7902,-7.7902,-7.7902,-7.7902,-7.7902,-7.7902,-7.6795,-7.6874,-7.6912,-7.6994,-7.7026,-7.7071,-7.7144,-7.7148,-7.722,-7.7294,-7.7269,-7.7367,-7.74,-7.7479,-7.7502,-7.7576,-7.7527,-7.757,-7.758,-7.7591,-7.7605,-7.7295,-7.7587,-7.7586,-7.7585,-7.7585,-7.7584,0,-7.6571,-7.6561,-7.6633,-7.6703,-7.6762,-7.6815,-7.6862,-7.6907,-7.6877,-7.6937,-7.7023,-7.707,-7.7163,-7.7241,-7.7303,-7.7318,-7.7265,-7.7259,-7.7288,-7.7302,-7.7306,-7.7305,-7.6915,-7.725,-7.7247,-7.7245,-7.7243,-7.7242,-7.6266,-7.636,-7.6396,-7.6447,-7.6472,-7.6555,-7.6602,-7.6569,-7.6621,-7.6671,-7.6741,-7.6819,-7.688,-7.7017,-7.7016,-7.7084,-7.7059,-7.7188,-7.7069,-7.7078,-7.706,-7.7055,-7.7063,-7.7211,-7.7215,-7.7219,-7.7221,0,-7.6095,-7.6083,-7.6226,-7.6251,-7.626,-7.6359,-7.6378,-7.6455,-7.6449,-7.6554,-7.6576,-7.6566,-7.665,-7.6629,-7.6719,-7.6705,-7.6863,-7.6837,-7.6851,-7.6845,-7.6957,-7.6947,-7.7328,-7.7376,-7.7032,-7.7035,-7.7038,0,-7.5829,-7.5954,-7.5928,-7.6011,-7.6147,-7.6111,-7.6246,-7.6255,-7.6284,-7.6366,-7.6303,-7.6381,-7.6342,-7.6415,-7.6395,-7.652,-7.6537,-7.6534,-7.6527,-7.6539,-7.654,-7.6564,-7.6548,-7.6508,-7.6506,-7.6504,-7.6503,0,-7.5562,-7.5694,-7.583,-7.5857,-7.5896,-7.596,-7.5978,-7.6011,-7.6057,-7.6113,-7.6142,-7.621,-7.6247,-7.6299,-7.6272,-7.6192,-7.6425,-7.631,-7.6421,-7.6422,-7.6474,-7.6471,-7.6814,-7.65,-7.65,-7.6499,-7.6499,0,-7.5345,-7.5407,-7.5606,-7.5636,-7.5671,-7.576,-7.5826,-7.5897,-7.5935,-7.5929,-7.5972,-7.5928,-7.6037,-7.5923,-7.6072,-7.5975,-7.6014,-7.6021,-7.6028,-7.6036,-7.591,-7.6106,-7.6436,-7.6469,-7.6044,-7.604,-7.6037,0,-7.5042,-7.524,-7.5211,-7.54,-7.5489,-7.5413,-7.551,-7.5547,-7.5547,-7.5619,-7.5617,-7.57,-7.5611,-7.5634,-7.571,-7.5711,-7.5837,-7.5694,-7.5795,-7.5799,-7.5787,-7.609,-7.6145,-7.6366,-7.5988,-7.5993,-7.5997,0,-7.4806,-7.4854,-7.489,-7.4919,-7.4964,-7.5037,-7.515,-7.5225,-7.5275,-7.5323,-7.5415,-7.553,-7.5468,-7.5506,-7.5477,-7.5557,-7.575,-7.5479,-7.5479,-7.5528,-7.5962,-7.6013,-7.605,-7.5712,-7.5718,-7.5723,-7.5958,0,-7.448,-7.4577,-7.4674,-7.4743,-7.4797,-7.4915,-7.4895,-7.4953,-7.492,-7.4917,-7.5051,-7.5075,-7.515,-7.5187,-7.5155,-7.5347,-7.5311,-7.5244,-7.5131,-7.5331,-7.5407,-7.5439,-7.5018,-7.5015,-7.5012,-7.501,0,0,-7.4192,-7.4332,-7.4297,-7.4406,-7.4449,-7.4369,-7.4496,-7.4528,-7.4595,-7.4625,-7.4563,-7.473,-7.4752,-7.4917,-7.4978,-7.5008,-7.504,-7.4972,-7.5236,-7.5261,-7.5285,-7.5367,-7.5401,-7.5005,-7.5004,-7.5003,-7.5002,0,-7.4069,-7.4098,-7.4226,-7.4258,-7.4304,-7.4296,-7.4326,-7.4357,-7.4361,-7.4494,-7.4424,-7.4502,-7.4637,-7.4669,-7.4703,-7.4951,-7.4893,-7.4975,-7.5116,-7.5208,-7.5237,-7.5263,-7.535,-7.5382,-7.4995,-7.4995,-7.4995,0,-7.3832,-7.3857,-7.3917,-7.4013,-7.4042,-7.4135,-7.4012,-7.4116,-7.4183,-7.4088,-7.4221,-7.4231,-7.4273,-7.4432,-7.4503,-7.4448,-7.4761,-7.4658,-7.4676,-7.4683,-7.4771,-7.4806,-7.4837,-7.4425,-7.4423,-7.4421,0,0,-7.3728,-7.3819,-7.3835,-7.3985,-7.4008,-7.3997,-7.4044,-7.4016,-7.4057,-7.4073,-7.4086,-7.4126,-7.4203,-7.4255,-7.4327,-7.4506,-7.451,-7.4589,-7.4616,-7.4638,-7.4657,-7.4751,-7.4786,-7.4414,-7.4414,-7.4414,0,0,-7.3678,-7.3703,-7.3663,-7.3835,-7.3877,-7.39,-7.3992,-7.3943,-7.4006,-7.399,-7.3945,-7.3954,-7.4103,-7.4116,-7.4023,-7.4286,-7.4176,-7.4197,-7.4273,-7.4306,-7.4333,-7.4326,-7.39,0,0,0,0,0,-7.3543,-7.3699,-7.3663,-7.3689,-7.3809,-7.3921,-7.3936,-7.3904,-7.3826,-7.3899,-7.3901,-7.3837,-7.4056,-7.3973,-7.3998,-7.4102,-7.4322,-7.4338,-7.4354,-7.4493,-7.4528,-7.4558,0,0,0,0,0,0,-7.3552,-7.3585,-7.3659,-7.369,-7.3716,-7.3915,-7.3776,-7.3772,-7.3818,-7.3804,-7.3838,-7.3838,-7.3811,-7.3958,-7.3981,-7.408,-7.3892,-7.4328,-7.4342,-7.4355,-7.4505,-7.4534,-7.4559,0,0,0,0,0,-7.356,-7.3586,-7.3788,-7.3687,-7.371,-7.3706,-7.377,-7.3765,-7.38,-7.3804,-7.3801,-7.3772,-7.3815,-7.3832,-7.3971,-7.4071,-7.3875,-7.3884,-7.4337,-7.4348,-7.4358,-7.4519,0,0,0,0,0,0,-7.3566,-7.3581,-7.3791,-7.3797,-7.3626,-7.3694,-7.3704,-7.376,-7.3796,-7.3796,-7.3735,-7.3723,-7.382,-7.3832,-7.3846,-7.4069,-7.3862,-7.3871,-7.3876,-7.4346,-7.4354,-7.4362,0,0,0,0,0,0,-7.3567,-7.3587,-7.3794,-7.3719,-7.3716,-7.3683,-7.3692,-7.3805,-7.3798,-7.3725,-7.3716,-7.3729,-7.3798,-7.3833,-7.3843,-7.4021,-7.3852,-7.386,-7.3866,-7.387,-7.4353,-7.4359,0,0,0,0,0,0,-7.3575,-7.3592,-7.3717,-7.3715,-7.3712,-7.3773,-7.3782,-7.3906,-7.3736,-7.3724,-7.3719,-7.3712,-7.3801,-7.381,-7.3842,-7.4016,-7.402,-7.3852,-7.3858,-7.3862,-7.3865,0,0,0,0,0,0,0,-7.3581,-7.3477,-7.3758,-7.3711,-7.3708,-7.385,-7.3852,-7.3853,-7.3734,-7.3728,-7.3721,-7.3715,-7.3803,-7.3812,-7.3822,-7.4012,0,0,-7.3851,-7.3855,0,0,0,0,0,0,0,0,-7.3469,-7.3475,-7.3758,-7.3759,-7.376,-7.3851,-7.3852,-7.3853,-7.3733,-7.3728,-7.3722,-7.3717,-7.3806,-7.3813,-7.3821,0,0,0,0,0,0,0,0,0,0,0,0,0,0,0,-7.3758,-7.3759,0,-7.3851,-7.3852,-7.3853,-7.3732,-7.3728,-7.3724,-7.3719,-7.3808,-7.3814,-7.382,0,0,0,0,0,0,0,0,0,0,0,0,0,0,0,0,0,0,0,0,0,0,0,0,0,0,0,0,0,0,0,0,0,0,0,0,0,0,0,0,0,0,0,0,0,0,0,0,0,0,0,0,0,0,0,0,0,0,0,0,0,0,0,0,0,0,0,0,0]}]]]